Zurück zum Katalog

KUIPER-00276

AktivKommunikationLEO
NORAD 67794·PAYLOAD·🇺🇸 United States

Gestartet Feb 12, 2026 von Guiana Space Centre

Loading…

Nächste Überflüge (nächste 24 Stunden)

TLE

AktuellSource: CelesTrak SupGP

Epoche: Sep 14, 2026, 18:10 UTC

1 67794C 26030AG  26257.75740741  .00002479  00000+0  32459-3 0  2575
2 67794  51.8978  72.0450 0001027  89.5016  64.2089 14.79916575    14

Verfolge KUIPER-00276 in Echtzeit mit AllMySat

Download on the App Store